www.pogodaiklimat.ru

Погода и климат >> Архив погоды >> Иран >> Sirri Island


ПОГОДА в Sirri Island

  • Прогноз погоды в Sirri Island
  • Монитор погоды в Sirri Island
  • Климат города

АРХИВ ПОГОДЫ в Sirri Island

Время (UTC), дата Ветер
(напр.,м/с)
 
Видим.   Явления Облачность Т
(С)
Тd
(С)
f
(%)
Тe
(С)
Тes
(С)
Комфортность P
(гПа)
Po
(гПа)
Тmin
(С)
Tmax
(С)
R
(мм)
R24
(мм)
S
(см)
09 11.08 СВ 5 10 км ясно +35.0 +29.4 73 +60 +71 опасность
перегрева
1000.5 1000.0
12 11.08 В 2 10 км ясно +36.0 998.1 997.7
15 11.08 ЮВ 2 10 км ясно +34.6 +29.3 74 +59 +59 опасность
перегрева
998.1 997.7 +36.3
03 12.08 ЮЗ 5 3500 м дымка 3/0
[Ac trans]
+32.8 +29.6 83 +58 +59 опасность
перегрева
998.0 997.6 +32.5
06 12.08 ЮЗ 5 3500 м мгла 4/4 600 м
[Sc diur, vesp]
+34.6 +28.4 70 +56 +61 опасность
перегрева
998.9 998.5
09 12.08 З 6 3000 м мгла ясно +35.8 +29.2 69 +60 +68 опасность
перегрева
997.1 996.7
12 12.08 З 3 6000 м мгла ясно +36.6 995.3 994.8
15 12.08 ЮЗ 4 7000 м мгла ясно +34.6 +29.6 75 +60 +60 опасность
перегрева
995.0 994.5 +36.8
03 13.08 ЮЗ 4 4000 м дымка 4/4 750 м
[Sc diur, vesp]
+32.8 +30.2 86 +60 +61 опасность
перегрева
994.1 993.6 +32.6
06 13.08 ЮЗ 6 6000 м мгла ясно +34.6 994.4 993.9
09 13.08 СВ 2 7000 м мгла ясно +36.4 +29.8 69 +62 +83 опасность
перегрева
994.2 993.7
12 13.08 ЮЗ 5 7000 м мгла ясно +36.8 992.2 991.7
15 13.08 Ю 2 7000 м мгла ясно +35.4 +30.4 75 +63 +63 опасность
перегрева
992.0 991.5 +37.2
03 14.08 Ю 2 4000 м дымка 3/3 750 м
[Sc diur, vesp]
+32.6 +30.0 86 +59 +60 опасность
перегрева
994.9 994.4 +32.4
06 14.08 В 2 5000 м мгла 1/1 600 м
[Sc diur, vesp]
+34.6 +29.6 75 +60 +73 опасность
перегрева
996.2 995.8
09 14.08 В 2 5000 м мгла 3/3 750 м
[Sc diur, vesp]
+36.0 +30.5 73 +64 +79 опасность
перегрева
995.9 995.5
12 14.08 В 2 5000 м мгла ясно +37.4 994.4 993.9
15 14.08 ЮВ 2 5000 м мгла ясно +35.2 +29.9 74 +62 +62 опасность
перегрева
994.2 993.7 +37.6
03 15.08 ЮВ 2 2000 м дымка ясно +33.6 +30.7 85 +63 +64 опасность
перегрева
996.9 996.5 +32.8
06 15.08 СВ 4 4000 м мгла ясно +35.4 998.1 997.7
09 15.08 ЮЗ 4 4000 м мгла ясно +36.2 +29.6 69 +62 +76 опасность
перегрева
997.2 996.8
12 15.08 С 5 7000 м мгла ясно +36.4 996.2 995.8
15 15.08 СЗ 2 7000 м мгла ясно +35.8 +29.2 69 +60 +60 опасность
перегрева
996.4 996.0 +36.6
03 16.08 СЗ 2 3000 м дымка ясно +33.4 +30.0 82 +60 +61 опасность
перегрева
998.5 998.1 +32.8
06 16.08 ЮВ 2 3500 м мгла 1/1 600 м
[Sc diur, vesp]
+35.4 +30.7 77 +65 +78 опасность
перегрева
999.7 999.3
09 16.08 В 2 5000 м мгла ясно +36.6 +29.2 66 +61 +81 опасность
перегрева
1000.1 999.6
12 16.08 В 2 5000 м мгла ясно +37.6 997.6 997.2
15 16.08 В 2 5000 м мгла ясно +35.6 +30.4 75 +64 +64 опасность
перегрева
997.4 997.0 +37.0
03 17.08 СЗ 2 3000 м дымка 3/3 750 м
[Sc diur, vesp]
+31.6 +29.2 87 +55 +56 опасность
перегрева
998.4 998.0 +31.4
06 17.08 СВ 2 4000 м мгла ясно +35.2 999.7 999.3
09 17.08 В 2 4000 м мгла ясно +36.6 +29.2 66 +61 +81 опасность
перегрева
998.6 998.2
12 17.08 ЮВ 2 4000 м мгла ясно +36.4 997.1 996.7
15 17.08 ЮЗ 2 3000 м мгла ясно +34.8 +30.1 77 +62 +62 опасность
перегрева
996.4 996.0 +37.2
03 18.08 В 3 2000 м дымка ясно +33.0 +29.3 81 +58 +59 опасность
перегрева
996.6 996.2 +32.6

 

Местоположение метеостанции Sirri Island (Иран): широта 25.91 долгота 54.55 высота над уровнем моря 4 м.

В архиве по умолчанию представлена погода в Sirri Island за последнюю неделю. Архивные данные за месяц целиком и за предыдущие месяцы, начиная с января 2011 года, Вы можете получить, выбрав интересующий диапазон дат из раскрывающегося списка и нажав кнопку "Ввод!".


*Определитесь, кто Вы:
робот инопланетянин человек

Внимание! Время в таблицах - всемирное. Для получения местного времени необходимо прибавить поправку, которая в Sirri Island равна 3.5 ч.

Смотрите также архив погоды в соседних городах и на ближайших метеорологических станциях:

Погода в Abu Musa Island (Иран) (29 км)
Погода в Bandar Lengeh (Иран) (80 км)
Погода в Kish Island (Иран) (87 км)
Погода в Dubai (ОАЭ) (107 км)
Погода в Sharjah (ОАЭ) (117 км)
Погода в Dubai Al Maktoum Int Airport (ОАЭ) (128 км)
Погода в Ras Al Khaimah Int Airport (ОАЭ) (142 км)
Погода в Abu Dhabi Bateen Airport (ОАЭ) (165 км)
Погода в Abu Dhabi (ОАЭ) (165 км)
Погода в Khasab Airport (Оман) (170 км)

Пояснения к столбцам:

Ветер - указаны скорость ветра в м/с - средняя за 10 мин, порывы в срок и между сроками (в фигурных скобках) и направление, откуда дует ветер: С - северный, СВ - северо-восточный, В - восточный, ЮВ - юго-восточный, Ю - южный, ЮЗ - юго-западный, З - западный, СЗ - северо-западный.
Видимость - горизонтальная дальность видимости в метрах или километрах. При видимости от 1 до 10 км при отсутствии осадков обычно наблюдается дымка, при ухудшении видимости до 1 км и менее - туман. В сухую погоду видимость может ухудшаться дымом, пылью или мглою.
Явления - указаны атмосферные явления, наблюдавшиеся в срок или в последний час перед сроком; фигурными скобками обозначены явления, наблюдавшиеся между сроками (за 1-3 часа до срока); квадратными скобками обозначены град или гололедные отложения с указанием их диаметра в мм.
Облачность - указаны через наклонную черту общая и нижняя облачность в баллах и высота нижней границы облаков в метрах; квадратными скобками обозначены формы облаков: Ci - перистые, Cs - перисто-слоистые, Cc - перисто-кучевые, Ac - высококучевые, As - высокослоистые, Sc - слоисто-кучевые, Ns - слоисто-дождевые, Cu - кучевые, Cb - кучево-дождевые. Подробнее классификацию облаков см. в Атласе облаков (PDF).
T - Температура воздуха - температура, измеренная на высоте 2 м над землей.
Td - Температура точки росы - температура, при понижении до которой содержащийся в воздухе водяной пар достигнет насыщения.
f - Относительная влажность воздуха - влажноcть воздуха, измеренная на высоте 2 м над землей.
Te - Эффективная температура - температура, которую ощущает одетый по сезону человек в тени. Характеристика душности погоды. При расчете учитывается влияние влажности воздуха и скорости ветра на теплоощущения человека.
Tes - Эффективная температура на солнце - температура, которую ощущает человек, с поправкой на солнечный нагрев. Характеристика знойности погоды. Зависит от высоты солнца над горизонтом, облачности и скорости ветра. Ночью, в пасмурную погоду, а также при ветре 12 м/с и более поправка равна нулю.
P - Атмосферное давление - приведенное к уровню моря атмосферное давление.
Po - Атмосферное давление - измеренное на уровне метеостанции атмосферное давление.
Tmin - Минимальная температура - минимум температуры воздуха на высоте 2 м над землей.
Tmax - Максимальная температура - максимум температуры воздуха на высоте 2 м над землей.
R - Количество осадков - Количество выпавших осадков за период времени, мм. При наведении курсора мыши на число - период времени, за который выпало указанное количество осадков.
R24 - Количество осадков - Количество выпавших осадков за 24 часа, мм.
S - Снежный покров - Высота снежного покрова, см. При наведении курсора мыши на число - состояние снежного покрова и степень покрытия местности в баллах.